Location: Buckland
(65.9785°N, 161.1281°W)
Time: 03:25:57
(UTC+00:00)

Transit 4A - Pass Details

Date: 26 November 2020
Orbit: 864 x 980 km, 66.8° (Epoch: 26 January)

Event Time Altitude Azimuth Distance (km) Brightness Sun altitude
Rises 02:28:01 0° 298° (WNW) 3,694 11.4 -7.6°
Reaches altitude 10° 02:30:37 10° 296° (WNW) 2,744 10.8 -7.8°
Maximum altitude 02:36:55 61° 218° (SW) 1,108 8.7 -8.3°
Drops below altitude 10° 02:43:08 10° 140° (SE) 2,700 10.3 -8.8°
Sets 02:45:41 0° 137° (SE) 3,630 10.9 -9.1°
